Burnet, TX

7:50 AM CDT on October 22, 2017 (GMT -0500)
Burnet Municipal-Craddock

Weather History for KBMQ - March, 2013

Change the Weather History Date:

Saturday, March 2, 2013

  Actual Average Record
Temperature  
Mean Temperature 50 °F -  
Max Temperature 62 °F 62 °F 84 °F (2006)
Min Temperature 37 °F 42 °F 23 °F (2014)
Degree Days  
Heating Degree Days 16    
Moisture  
Dew Point 25 °F    
Average Humidity 43    
Maximum Humidity 65    
Minimum Humidity 24    
Precipitation  
Precipitation 0.00 in - - ()
Sea Level Pressure  
Sea Level Pressure 30.33 in    
Wind  
Wind Speed 8 mph (NNW)    
Max Wind Speed 16 mph    
Max Gust Speed 23 mph    
Visibility 10 miles    
Events      
Averages and records for this station are not official NWS values.
T = Trace of Precipitation, MM = Missing Value Source: NWS Daily Summary

Daily Weather History Graph

Daily Weather History Graph

Search for Another Location

Airport or City:

Trip Planner

Search our weather history database for the weather conditions in past years. The results will help you decide how hot, cold, wet, or windy it might be!

Date:

Astronomy

Mar. 02, 2013 Rise Set
Actual Time 6:57 AM CST 6:32 PM CST
Civil Twilight 6:33 AM CST 6:56 PM CST
Nautical Twilight 6:05 AM CST 7:24 PM CST
Astronomical Twilight 5:37 AM CST 7:52 PM CST
Moon 11:47 PM CST (3/2) 9:51 AM CST (3/2)
Length of Visible Light 12h 22m
Length of Day
11h 34m
Waning Gibbous, 74% of the Moon is Illuminated
Mar 2
Waning Gibbous
Mar 4
Last Quarter
Mar 11
New
Mar 19
First Quarter
Mar 27
Full

Hourly Weather History & Observations

Time (CST) Temp. Windchill Dew Point Humidity Pressure Visibility Wind Dir Wind Speed Gust Speed Precip Events Conditions
12:53 AM 44.1 °F 40.8 °F 27.0 °F 51% 30.31 in 10.0 mi North 5.8 mph - N/A   Clear
1:53 AM 43.0 °F 39.5 °F 27.0 °F 53% 30.32 in 10.0 mi NNW 5.8 mph - N/A   Clear
3:53 AM 42.1 °F 37.1 °F 27.0 °F 55% 30.34 in 10.0 mi NNW 8.1 mph - N/A   Clear
4:53 AM 39.9 °F 33.9 °F 27.0 °F 60% 30.35 in 10.0 mi NNW 9.2 mph - N/A   Clear
6:53 AM 37.0 °F 30.4 °F 26.1 °F 65% 30.38 in 10.0 mi NNW 9.2 mph - N/A   Clear
7:53 AM 37.9 °F 30.9 °F 27.0 °F 65% 30.41 in 10.0 mi North 10.4 mph - N/A   Clear
9:53 AM 46.9 °F - 24.1 °F 41% 30.44 in 10.0 mi North 11.5 mph 16.1 mph N/A   Clear
10:53 AM 51.1 °F - 21.9 °F 32% 30.43 in 10.0 mi North 10.4 mph 19.6 mph N/A   Clear
11:53 AM 54.0 °F - 19.9 °F 26% 30.41 in 10.0 mi NNW 16.1 mph 23.0 mph N/A   Clear
12:53 PM 57.0 °F - 21.9 °F 26% 30.38 in 10.0 mi North 10.4 mph 18.4 mph N/A   Clear
1:53 PM 59.0 °F - 21.9 °F 24% 30.34 in 10.0 mi North 12.7 mph - N/A   Clear
2:53 PM 59.0 °F - 23.0 °F 25% 30.32 in 10.0 mi NW 9.2 mph - N/A   Clear
3:53 PM 62.1 °F - 25.0 °F 24% 30.29 in 10.0 mi NNW 11.5 mph - N/A   Clear
4:53 PM 61.0 °F - 25.0 °F 25% 30.28 in 10.0 mi NW 13.8 mph 18.4 mph N/A   Clear
5:53 PM 61.0 °F - 25.0 °F 25% 30.28 in 10.0 mi NW 8.1 mph - N/A   Clear
7:53 PM 51.1 °F - 28.0 °F 41% 30.29 in 10.0 mi Calm Calm - N/A   Clear
8:53 PM 46.0 °F - 27.0 °F 47% 30.28 in 10.0 mi Calm Calm - N/A   Clear
9:53 PM 42.1 °F 39.2 °F 28.0 °F 58% 30.28 in 10.0 mi NNE 4.6 mph - N/A   Clear
10:53 PM 39.9 °F 36.7 °F 27.0 °F 60% 30.28 in 10.0 mi NE 4.6 mph - N/A   Clear
11:53 PM 42.1 °F - 27.0 °F 55% 30.26 in 10.0 mi Calm Calm - N/A   Clear